Wind_Speed
3 4 5 6 6 7 8 8 7 7 7 8 8 7 6 6 6 5 6 9 9 7 10 11 12 14 14 16 17 18 19 17 24 26 30 21 23 23 22 28 27 30 34 34 33
2 2 3 5 7 8 9 10 10 10 9 8 6 4 4 5 5 5 6 7 9 9 10 14 16 15 19 19 18 18 19 26 25 24 30 31 26 29 28 30 33 31 34 36 35
1 2 3 4 5 6 9 10 10 10 7 5 4 1 1 1 2 3 4 5 7 8 9 11 13 15 16 19 22 25 29 26 29 29 29 32 31 30 31 32 35 32 36 36 38
1 2 3 3 3 4 4 5 6 6 5 5 3 2 1 1 2 2 2 1 2 3 5 5 8 12 13 13 15 17 20 22 24 24 24 25 27 28 28 30 31 32 33 35 35
2 3 3 3 3 4 5 5 5 5 5 5 5 3 3 3 2 2 3 2 2 2 2 4 6 8 8 10 11 12 15 17 19 19 19 19 21 23 24 23 26 27 29 30 31
6 4 4 5 4 4 4 5 5 5 6 6 6 6 6 5 5 5 5 6 5 5 4 3 3 5 6 8 8 8 9 9 8 9 10 14 18 19 23 20 22 24 25 28 31
8 9 7 6 6 5 4 5 6 7 8 8 8 8 8 8 8 9 8 9 8 7 6 6 6 7 7 7 6 6 8 9 12 13 15 17 22 28 24 25 27 27 26 29 32
5 8 8 8 8 8 7 6 7 7 9 10 10 10 10 10 10 10 9 9 11 10 10 9 9 10 9 9 9 10 12 16 22 18 21 21 23 32 34 38 36 36 34 35 36
4 5 7 9 9 10 10 10 10 10 10 11 12 13 13 13 12 11 11 11 12 12 12 11 11 11 11 12 14 14 12 20 25 30 26 28 27 31 35 39 40 41 43 41 41
5 5 6 7 9 11 11 12 12 13 14 14 14 13 13 13 13 12 12 12 12 12 12 12 12 13 13 13 12 18 22 23 28 33 34 33 36 35 37 41 44 45 47 47 47
6 6 6 7 8 10 12 13 14 14 15 15 15 16 16 15 15 14 14 13 13 12 12 12 13 13 15 15 17 21 24 28 32 38 39 39 41 40 41 44 45 46 47 49 50
7 7 8 8 8 8 10 11 12 13 14 14 14 15 16 15 16 15 14 15 14 12 11 13 15 14 16 18 21 24 29 32 37 41 45 44 45 42 43 46 42 44 45 45 46
8 8 9 10 10 10 10 10 11 11 13 14 14 15 15 17 17 17 17 15 13 12 11 12 17 16 18 22 24 28 35 37 42 43 43 46 44 38 42 43 39 37 37 40 42
9 10 10 11 12 14 14 14 14 14 16 13 14 13 14 15 15 14 13 12 11 13 13 15 16 18 22 25 28 31 40 42 44 45 44 39 47 34 18 39 50 41 44 44 45
12 12 13 13 13 14 13 14 15 16 17 17 16 15 14 16 14 12 11 11 12 12 12 19 18 22 25 29 33 36 40 42 42 42 44 34 25 14 25 31 32 37 41 55 56
13 14 14 13 13 12 13 14 15 16 18 17 18 18 17 15 14 12 13 12 12 13 15 18 24 23 28 33 37 38 39 39 40 28 28 26 36 33 28 32 39 33 42 53 57
14 15 15 14 14 15 15 15 16 14 14 15 15 14 13 11 12 12 10 10 13 14 20 23 28 28 29 34 39 42 42 42 41 30 25 22 33 41 43 41 47 52 50 51 50
15 16 15 15 14 15 15 15 14 14 13 12 12 11 11 9 10 9 10 14 11 16 20 26 29 35 37 37 39 38 37 40 43 41 46 45 33 28 35 45 54 51 44 35 49
16 16 16 15 14 15 15 16 14 14 12 10 9 7 7 8 9 10 12 15 18 19 23 28 32 36 38 38 39 36 37 40 44 48 49 37 29 29 36 47 34 31 38 52 39
17 17 17 17 15 15 15 15 16 16 13 10 9 7 8 10 11 13 19 17 22 23 26 31 36 37 38 38 40 40 38 42 44 47 51 46 43 22 33 29 34 33 50 41 38
17 17 18 18 17 15 16 16 16 15 15 14 14 14 15 15 16 19 22 25 25 29 31 33 36 37 40 39 39 37 38 40 43 39 37 43 40 31 39 43 51 40 42 40 38
22 22 20 20 20 18 18 17 16 16 16 18 20 20 21 22 22 24 27 30 31 33 34 37 36 39 36 37 38 39 42 47 50 48 41 40 45 27 26 40 43 37 41 40 26
25 23 22 22 23 22 21 20 20 20 19 19 22 24 25 27 28 29 32 32 34 35 34 39 38 42 37 40 44 46 46 46 46 45 39 36 27 22 26 32 36 32 32 33 38
26 26 24 22 23 24 25 24 25 23 23 23 24 26 29 31 33 32 34 39 32 34 36 38 36 38 35 36 38 42 43 42 40 38 35 22 27 25 30 30 28 30 32 38 34
24 24 26 26 24 25 25 26 27 27 27 27 27 28 30 31 33 35 35 36 36 34 36 38 38 39 35 38 40 43 42 39 34 30 28 23 25 29 28 30 32 35 35 37 37
28 26 24 25 27 27 26 28 30 29 29 29 29 28 32 32 33 33 33 34 33 37 36 40 37 37 35 40 41 42 39 35 30 26 26 24 25 29 33 32 32 35 37 38 39
29 30 29 30 28 29 30 31 32 31 29 28 27 27 29 31 31 32 31 32 33 35 37 37 37 38 37 40 40 41 36 32 25 23 24 25 28 30 30 34 35 38 41 40 36
Wind_Direction
206 215 216 209 196 194 200 208 220 245 269 285 284 277 268 255 255 245 244 250 270 235 207 191 217 213 217 223 229 231 235 251 246 248 260 269 265 264 261 260 258 259 264 269 272
203 221 234 233 236 238 237 237 245 258 268 276 271 280 264 246 249 253 248 242 246 244 231 205 218 234 224 224 216 226 240 237 263 262 260 270 264 269 263 266 266 265 265 266 265
215 228 236 245 249 251 248 248 250 251 252 249 251 267 159 159 194 227 235 233 238 237 237 229 225 229 228 224 225 230 237 254 255 262 264 271 271 272 274 272 276 273 270 269 268
249 249 248 265 266 257 244 242 239 243 241 228 227 211 188 130 142 168 186 188 196 206 238 238 225 225 231 234 238 242 248 256 264 269 272 273 276 279 280 278 279 277 274 272 269
285 277 269 261 261 257 267 262 249 238 229 217 208 237 237 224 253 258 252 239 274 283 217 212 233 242 247 253 258 263 264 268 273 278 283 283 285 287 286 286 287 286 285 282 280
253 269 272 269 267 266 261 259 246 236 229 230 233 239 246 254 262 285 280 283 288 295 299 280 269 241 240 242 252 260 274 280 284 289 305 308 308 307 304 308 303 299 296 291 287
252 258 266 263 263 264 258 256 250 242 244 249 251 250 254 261 264 274 276 280 288 290 277 269 271 264 268 273 275 283 297 302 315 317 328 317 315 307 306 302 302 301 299 296 291
272 258 261 268 270 267 268 269 263 252 252 251 251 253 258 263 270 270 275 278 277 272 267 257 254 252 258 271 277 286 298 310 311 309 308 310 308 306 310 308 308 303 301 300 297
304 278 268 268 271 272 272 273 271 268 266 264 263 259 260 262 260 261 263 268 262 258 262 265 268 265 273 282 296 289 294 295 299 302 303 302 297 292 296 296 298 298 297 295 294
346 323 294 281 276 277 276 275 277 278 274 271 270 270 267 267 265 270 270 274 272 266 265 267 273 276 281 291 279 276 296 294 296 293 302 298 296 293 293 292 293 294 292 292 289
346 337 322 305 293 283 279 280 282 280 277 275 273 271 271 273 274 275 275 279 282 278 279 287 289 290 297 297 292 291 292 295 295 299 299 297 294 292 290 287 287 287 288 287 287
328 321 315 312 305 299 291 282 281 281 280 277 275 274 274 274 273 272 275 282 284 281 290 297 290 299 299 299 299 301 301 300 300 299 299 299 296 295 289 288 285 287 285 285 284
319 315 309 307 304 303 301 296 288 283 282 280 278 277 276 274 275 275 277 279 278 275 286 287 293 301 302 306 309 307 301 304 303 303 303 303 303 305 302 294 294 291 289 287 287
318 309 301 293 293 291 292 290 289 289 285 283 285 278 280 277 275 271 271 275 275 282 290 290 304 306 308 306 306 306 307 308 309 310 312 309 307 309 288 304 306 300 295 288 287
325 315 305 299 294 292 293 295 295 291 290 285 288 282 279 278 275 273 268 270 277 285 295 299 305 305 308 308 307 309 309 311 311 311 309 324 302 298 311 310 304 305 301 300 296
317 319 316 309 300 291 290 294 300 301 285 284 280 281 280 277 271 269 264 268 284 296 299 300 301 304 308 309 307 308 309 312 315 321 305 311 297 297 293 275 277 282 280 290 292
308 311 316 314 306 299 295 296 305 297 298 291 280 275 275 276 272 267 266 275 291 297 304 311 309 311 309 310 314 316 316 313 314 311 300 291 285 293 295 293 293 293 293 293 290
304 303 308 312 312 305 300 295 304 299 292 287 285 277 269 262 267 273 280 285 279 299 305 308 311 316 316 317 313 311 312 312 314 312 307 307 315 315 304 294 295 299 303 302 310
295 297 297 303 305 302 297 295 299 296 291 290 284 264 263 265 272 270 275 289 297 300 302 304 309 312 313 315 314 312 312 311 311 312 314 313 303 294 282 277 280 302 299 292 306
294 291 291 293 302 298 295 287 290 289 275 275 270 256 262 264 267 273 283 289 293 297 302 306 309 310 312 313 310 312 315 315 316 313 314 312 310 320 271 279 270 270 278 288 288
300 294 291 289 293 295 295 293 283 275 267 262 262 262 262 264 267 275 283 290 296 300 300 304 308 310 314 316 315 313 316 314 312 305 298 308 315 293 283 283 287 293 289 282 263
292 287 284 284 287 285 287 291 288 279 269 259 258 262 265 269 272 275 279 287 293 296 299 303 308 309 313 309 310 313 317 318 319 319 310 311 316 311 305 295 301 298 293 295 291
294 294 286 278 280 283 283 285 285 284 277 268 263 262 264 266 268 272 280 286 289 294 299 303 311 311 318 317 318 323 322 317 313 314 316 310 316 315 294 295 308 314 307 310 300
289 287 283 284 282 281 282 283 284 284 283 277 270 265 264 267 270 273 278 284 286 293 296 302 311 312 316 313 312 314 315 313 311 311 312 309 309 310 295 302 305 307 305 304 304
284 283 280 281 281 280 281 283 284 286 286 285 277 272 270 269 272 276 279 285 292 296 301 308 312 310 314 313 315 315 316 316 313 310 305 313 303 304 310 313 312 309 304 299 298
281 283 281 280 282 283 284 286 285 285 286 285 282 277 274 273 274 277 283 288 294 300 305 309 309 309 315 313 316 318 317 314 311 306 307 314 316 307 317 319 316 309 303 300 296
286 286 288 284 285 285 286 286 283 280 282 283 281 280 277 276 277 279 283 289 298 302 304 306 308 311 316 314 317 317 318 315 306 298 300 307 312 311 319 319 317 312 310 309 307
Height
5857 5857 5857 5858 5859 5859 5860 5860 5860 5860 5860 5860 5859 5858 5858 5859 5860 5860 5860 5860 5861 5862 5863 5864 5866 5868 5870 5872 5874 5877 5879 5881 5878 5879 5876 5878 5878 5877 5880 5878 5878 5878 5876 5875 5876
5857 5857 5857 5857 5858 5858 5858 5859 5859 5859 5859 5859 5858 5858 5857 5858 5859 5859 5860 5859 5860 5860 5861 5863 5864 5866 5868 5869 5871 5873 5876 5873 5873 5875 5872 5871 5872 5872 5873 5872 5871 5873 5872 5871 5871
5857 5857 5857 5857 5857 5857 5857 5857 5858 5858 5858 5858 5858 5857 5857 5858 5858 5858 5858 5858 5858 5859 5860 5861 5862 5864 5865 5866 5868 5870 5868 5869 5868 5869 5868 5866 5866 5867 5866 5865 5864 5866 5865 5865 5864
5857 5857 5857 5857 5857 5857 5856 5856 5857 5857 5857 5857 5857 5857 5857 5858 5860 5858 5858 5858 5859 5859 5859 5859 5860 5861 5862 5863 5864 5865 5865 5865 5864 5864 5863 5863 5862 5860 5860 5859 5858 5858 5857 5857 5857
5857 5856 5856 5857 5857 5856 5856 5856 5856 5856 5856 5857 5857 5857 5857 5858 5858 5858 5858 5858 5858 5859 5860 5860 5860 5861 5861 5861 5862 5862 5862 5862 5861 5861 5860 5860 5858 5857 5855 5855 5852 5851 5850 5849 5847
5856 5856 5856 5856 5856 5856 5856 5855 5856 5856 5856 5856 5857 5857 5857 5858 5857 5857 5858 5858 5859 5858 5858 5859 5859 5860 5860 5861 5861 5861 5860 5859 5859 5859 5859 5856 5854 5852 5849 5849 5847 5845 5844 5842 5840
5855 5855 5855 5855 5855 5855 5855 5855 5855 5855 5855 5855 5856 5856 5856 5857 5857 5857 5857 5857 5858 5858 5858 5858 5858 5859 5859 5859 5859 5859 5858 5857 5856 5855 5855 5853 5850 5846 5847 5846 5843 5840 5838 5836 5833
5854 5854 5854 5854 5854 5855 5855 5855 5855 5855 5855 5854 5855 5855 5855 5855 5855 5856 5856 5856 5857 5857 5857 5857 5858 5858 5858 5858 5858 5857 5857 5855 5852 5853 5851 5851 5849 5841 5838 5833 5833 5831 5831 5828 5825
5853 5853 5853 5853 5853 5853 5853 5853 5853 5853 5853 5853 5853 5853 5854 5853 5854 5854 5854 5855 5855 5855 5855 5855 5856 5856 5856 5856 5856 5855 5856 5853 5851 5846 5847 5845 5845 5840 5836 5830 5828 5825 5821 5821 5818
5852 5852 5852 5852 5851 5851 5851 5851 5851 5851 5851 5851 5851 5852 5851 5851 5851 5851 5851 5851 5851 5852 5852 5853 5853 5853 5853 5854 5854 5853 5851 5849 5846 5843 5840 5838 5835 5834 5830 5825 5820 5817 5812 5809 5807
5852 5851 5850 5850 5849 5849 5849 5849 5850 5849 5848 5848 5848 5847 5847 5847 5847 5847 5847 5848 5847 5848 5848 5849 5849 5849 5849 5849 5849 5848 5846 5844 5840 5836 5833 5831 5828 5826 5822 5818 5813 5809 5805 5799 5795
5851 5850 5849 5849 5848 5847 5846 5846 5845 5845 5845 5844 5844 5844 5843 5843 5843 5844 5844 5844 5844 5844 5844 5845 5844 5845 5844 5844 5843 5841 5839 5837 5833 5829 5824 5821 5818 5816 5811 5806 5804 5798 5794 5790 5786
5850 5849 5848 5847 5846 5845 5844 5844 5843 5842 5841 5840 5840 5840 5840 5840 5839 5839 5840 5840 5840 5841 5841 5842 5840 5840 5839 5838 5837 5835 5830 5828 5824 5820 5816 5808 5806 5801 5795 5793 5792 5787 5784 5779 5775
5848 5847 5846 5845 5845 5843 5842 5841 5840 5839 5838 5839 5837 5836 5836 5835 5835 5835 5835 5837 5837 5836 5837 5837 5836 5835 5833 5832 5830 5828 5821 5818 5813 5808 5804 5801 5794 5791 5790 5780 5772 5774 5770 5768 5764
5845 5844 5843 5842 5840 5840 5839 5837 5836 5835 5835 5835 5833 5832 5832 5832 5832 5832 5832 5832 5832 5832 5834 5831 5831 5829 5828 5826 5822 5820 5814 5809 5804 5800 5795 5793 5789 5791 5785 5777 5770 5762 5756 5751 5748
5843 5842 5840 5839 5838 5836 5835 5834 5833 5833 5830 5829 5828 5828 5827 5827 5827 5827 5828 5828 5829 5828 5828 5827 5824 5825 5822 5818 5814 5811 5807 5803 5796 5793 5789 5791 5782 5782 5779 5774 5764 5760 5751 5743 5737
5840 5839 5837 5835 5835 5833 5832 5831 5831 5829 5828 5826 5824 5824 5824 5823 5823 5823 5824 5825 5825 5824 5822 5821 5818 5817 5816 5811 5805 5800 5796 5792 5792 5790 5790 5787 5776 5771 5763 5757 5749 5743 5739 5733 5723
5837 5836 5834 5833 5831 5830 5828 5829 5828 5825 5823 5822 5821 5821 5821 5821 5821 5821 5821 5820 5821 5820 5818 5815 5813 5808 5805 5803 5799 5795 5792 5786 5780 5778 5774 5770 5766 5767 5750 5739 5731 5727 5722 5715 5711
5833 5832 5831 5829 5828 5826 5826 5824 5823 5822 5821 5819 5818 5818 5818 5819 5819 5818 5817 5816 5815 5814 5813 5809 5806 5802 5798 5795 5791 5788 5784 5778 5772 5766 5761 5762 5759 5755 5743 5727 5724 5719 5713 5706 5705
5828 5827 5827 5826 5824 5823 5822 5820 5818 5817 5817 5816 5816 5816 5816 5815 5815 5814 5812 5812 5809 5808 5806 5802 5798 5795 5792 5788 5783 5778 5775 5769 5763 5756 5749 5748 5743 5742 5727 5721 5715 5711 5701 5699 5694
5824 5823 5822 5821 5820 5819 5817 5815 5814 5813 5812 5813 5812 5812 5812 5811 5811 5809 5808 5804 5803 5800 5798 5795 5792 5790 5783 5778 5774 5771 5766 5760 5754 5749 5740 5733 5732 5729 5720 5710 5703 5700 5693 5689 5683
5819 5818 5816 5816 5816 5814 5813 5811 5810 5808 5807 5807 5807 5807 5806 5806 5805 5803 5801 5798 5796 5793 5791 5786 5785 5779 5777 5771 5767 5761 5755 5748 5741 5735 5729 5723 5716 5714 5710 5700 5693 5686 5682 5678 5666
5812 5811 5810 5809 5808 5807 5807 5806 5804 5803 5802 5801 5800 5800 5799 5798 5798 5796 5793 5792 5789 5786 5783 5778 5775 5770 5767 5760 5753 5747 5744 5738 5732 5725 5720 5714 5710 5709 5704 5693 5687 5681 5673 5668 5664
5806 5804 5804 5802 5801 5800 5799 5799 5797 5797 5796 5795 5794 5793 5792 5791 5789 5789 5786 5781 5782 5779 5775 5771 5769 5762 5760 5755 5750 5745 5739 5732 5724 5717 5712 5707 5702 5700 5693 5688 5683 5677 5671 5664 5659
5798 5798 5796 5796 5796 5794 5793 5792 5790 5790 5789 5787 5786 5785 5784 5783 5781 5779 5777 5774 5772 5771 5766 5763 5759 5754 5751 5745 5741 5734 5728 5722 5715 5709 5704 5703 5697 5691 5686 5681 5676 5670 5664 5660 5653
5792 5791 5791 5789 5788 5787 5786 5785 5782 5782 5781 5779 5777 5777 5775 5774 5773 5771 5769 5767 5765 5760 5758 5754 5751 5746 5743 5736 5731 5725 5720 5713 5707 5703 5698 5695 5691 5684 5680 5674 5669 5663 5655 5651 5647
5783 5783 5782 5781 5781 5780 5778 5775 5773 5772 5772 5770 5769 5768 5767 5766 5765 5763 5762 5760 5757 5754 5749 5746 5741 5737 5735 5728 5722 5716 5711 5705 5700 5697 5692 5688 5685 5678 5674 5668 5662 5654 5648 5641 5636